Location: Chacón
(10.5789°N, 66.9317°W)
Time: 20:29:26
(UTC+00:00)

Sakura Rocket - Pass Details

Date: 18 August 2024
Orbit: 475 x 1710 km, 28.7° (Epoch: 09 September)

Event Time Altitude Azimuth Distance (km) Brightness Sun altitude
Exits shadow 08:58:54 33° 251° (WSW) 1,660 4.6 -19.6°
Maximum altitude 09:01:16 43° 207° (SSW) 1,508 4.6 -19.1°
Drops below altitude 10° 09:09:19 10° 139° (SE) 3,452 7.2 -17.2°
Sets 09:12:57 0° 133° (SE) 4,607 7.9 -16.3°
